GW0351 Weather Reports


time (UTC)temp
F
wind
direction
speed
knots
gust
knots
rain 1hr
in
rain 24hr
in
rain mn
in
humidity
%
barometer
mb
20260505011943 59 270 0.0 0.0 0.00 0.00 0.00 86 997.5
20260505011439 59 270 0.0 0.0 0.00 0.00 0.00 84 997.2
20260505010936 60 270 0.0 0.0 0.00 0.00 0.00 84 996.8
20260505010432 60 270 0.0 0.0 0.00 0.00 0.00 81 997.2
20260505005928 61 270 0.0 0.0 0.00 0.00 0.00 81 997.2
20260505005425 61 270 0.0 0.0 0.00 0.00 0.00 79 997.2
20260505004923 61 270 0.0 0.0 0.00 0.00 0.00 80 996.8
20260505004419 62 270 0.0 0.0 0.00 0.00 0.00 79 996.8
20260505003916 62 270 0.0 0.0 0.00 0.00 0.00 76 996.8
20260505003413 63 270 0.0 0.0 0.00 0.00 0.00 76 996.8
20260505002909 64 270 0.0 0.0 0.00 0.00 0.00 74 996.4
20260505002406 64 270 0.0 0.0 0.00 0.00 0.00 72 996.8
20260505001904 65 270 0.0 0.0 0.00 0.00 0.00 71 996.8
20260505001401 66 270 0.0 0.0 0.00 0.00 0.00 66 996.4
20260505000858 67 270 0.0 0.0 0.00 0.00 0.00 68 996.4
20260505000358 67 270 0.0 0.0 0.00 0.00 0.00 66 996.4
20260504235852 68 270 0.0 0.0 0.00 0.00 0.00 65 996.4
20260504235350 68 270 0.0 0.0 0.00 0.00 0.00 65 996.1
20260504234846 69 269 0.0 0.0 0.00 0.00 0.00 63 996.1
20260504234344 69 269 0.0 0.0 0.00 0.00 0.00 61 996.4
20260504233840 69 269 0.0 0.0 0.00 0.00 0.00 60 996.4
20260504233336 71 269 0.0 0.0 0.00 0.00 0.00 59 996.4
20260504232833 71 269 0.0 0.0 0.00 0.00 0.00 56 996.4
20260504232330 71 269 0.0 0.0 0.00 0.00 0.00 57 996.4
20260504231827 73 269 0.0 0.0 0.00 0.00 0.00 56 996.4
20260504231323 74 269 0.0 0.0 0.00 0.00 0.00 56 996.4
20260504230819 75 269 0.0 0.0 0.00 0.00 0.00 48 996.4
20260504230318 74 269 0.0 0.0 0.00 0.00 0.00 45 996.4
20260504225816 74 269 0.0 0.0 0.00 0.00 0.00 46 996.8
20260504225312 77 269 0.0 0.0 0.00 0.00 0.00 41 996.4
20260504224809 78 269 0.0 0.0 0.00 0.00 0.00 39 996.4
20260504224306 77 269 0.0 0.0 0.00 0.00 0.00 39 996.4
20260504223803 80 269 0.0 0.0 0.00 0.00 0.00 38 996.4
20260504223258 80 269 0.0 0.0 0.00 0.00 0.00 37 996.8
20260504222755 79 269 0.0 0.0 0.00 0.00 0.00 37 996.8
20260504222252 78 269 1.7 1.7 0.00 0.00 0.00 34 996.4
20260504221750 78 276 0.0 0.0 0.00 0.00 0.00 35 996.8
20260504221247 79 300 0.9 0.9 0.00 0.00 0.00 36 996.8
20260504220743 80 286 0.0 0.0 0.00 0.00 0.00 33 996.8
20260504220241 82 206 0.0 0.0 0.00 0.00 0.00 31 996.8
20260504215738 80 176 0.0 0.0 0.00 0.00 0.00 36 996.8
20260504215234 81 294 0.0 0.0 0.00 0.00 0.00 39 996.8
20260504214730 82 294 0.0 0.0 0.00 0.00 0.00 35 996.4
20260504214227 82 300 0.0 0.0 0.00 0.00 0.00 37 996.4
20260504213724 81 324 0.0 0.0 0.00 0.00 0.00 31 996.8
20260504213220 80 310 0.0 0.0 0.00 0.00 0.00 33 996.8
20260504212717 80 264 0.0 0.0 0.00 0.00 0.00 36 996.4
20260504212214 80 264 0.0 0.0 0.00 0.00 0.00 38 996.8
20260504211711 81 264 0.0 0.0 0.00 0.00 0.00 36 996.8
20260504211207 79 264 0.0 0.0 0.00 0.00 0.00 36 996.8
20260504210705 78 264 0.0 0.0 0.00 0.00 0.00 40 996.4
20260504210202 78 264 0.0 0.0 0.00 0.00 0.00 40 996.8
20260504205659 79 264 0.0 0.0 0.00 0.00 0.00 38 996.8
20260504205155 79 280 0.0 0.0 0.00 0.00 0.00 37 996.8
20260504204654 78 246 0.0 0.0 0.00 0.00 0.00 40 996.8
20260504204153 80 282 1.7 1.7 0.00 0.00 0.00 33 996.8
20260504203651 79 286 0.0 0.0 0.00 0.00 0.00 36 996.8
20260504203148 78 287 0.0 0.0 0.00 0.00 0.00 34 996.8
20260504202643 78 282 0.0 0.0 0.00 0.00 0.00 32 997.2
20260504202140 80 282 0.0 0.0 0.00 0.00 0.00 33 997.2
20260504201637 78 0 0.0 0.0 0.00 0.00 0.00 34 996.8
20260504201135 77 0 0.9 0.9 0.00 0.00 0.00 37 997.2
20260504200632 78 59 0.0 0.0 0.00 0.00 0.00 34 997.2
20260504200128 80 118 0.0 0.0 0.00 0.00 0.00 32 997.2
20260504195624 79 132 0.0 0.0 0.00 0.00 0.00 37 997.5
20260504195121 78 282 0.0 0.0 0.00 0.00 0.00 34 997.5
20260504194617 78 270 0.0 0.0 0.00 0.00 0.00 36 997.2
20260504194113 78 270 0.0 0.0 0.00 0.00 0.00 38 997.5
20260504193610 78 308 1.7 1.7 0.00 0.00 0.00 36 997.5
20260504193109 78 300 0.0 0.0 0.00 0.00 0.00 35 997.5
20260504192606 78 276 1.7 1.7 0.00 0.00 0.00 37 997.5
20260504192104 78 308 0.0 0.0 0.00 0.00 0.00 37 997.9
20260504191602 76 242 1.7 1.7 0.00 0.00 0.00 36 997.9
20260504191057 76 232 0.0 0.0 0.00 0.00 0.00 35 997.9
20260504190554 76 282 0.0 0.0 0.00 0.00 0.00 36 997.9
20260504190050 76 288 2.6 3.5 0.00 0.00 0.00 34 998.2
20260504185547 75 72 0.0 0.0 0.00 0.00 0.00 40 998.2
20260504185044 75 80 0.0 0.0 0.00 0.00 0.00 35 998.2
20260504184539 76 84 0.0 0.0 0.00 0.00 0.00 39 998.2
20260504184035 76 87 0.0 0.0 0.00 0.00 0.00 40 998.2
20260504183532 77 300 0.9 0.9 0.00 0.00 0.00 39 998.6
20260504183030 76 74 0.0 0.0 0.00 0.00 0.00 39 998.6
20260504182527 75 328 0.0 0.0 0.00 0.00 0.00 42 998.6
20260504182024 75 78 0.0 0.0 0.00 0.00 0.00 44 998.9
20260504181521 75 269 0.0 0.0 0.00 0.00 0.00 43 998.9
20260504181020 75 305 0.0 0.0 0.00 0.00 0.00 41 998.9
20260504180518 74 293 0.0 0.0 0.00 0.00 0.00 39 999.2
20260504180017 75 288 0.0 0.0 0.00 0.00 0.00 41 998.9
20260504175513 75 288 0.0 0.0 0.00 0.00 0.00 46 999.2
20260504175010 74 304 1.7 1.7 0.00 0.00 0.00 47 999.2
20260504174508 73 66 1.7 1.7 0.00 0.00 0.00 44 999.2
20260504174005 73 156 0.0 0.0 0.00 0.00 0.00 42 998.9
20260504173502 73 218 0.0 0.0 0.00 0.00 0.00 45 998.9
20260504172959 73 278 0.0 0.0 0.00 0.00 0.00 47 999.2
20260504172455 73 295 2.6 3.5 0.00 0.00 0.00 42 999.6
20260504171951 73 288 0.0 0.0 0.00 0.00 0.00 42 999.6
20260504171449 73 262 0.0 0.0 0.00 0.00 0.00 45 999.6
20260504170945 72 262 1.7 1.7 0.00 0.00 0.00 44 999.6
20260504170441 72 85 0.0 0.0 0.00 0.00 0.00 48 999.6
20260504160401 70 279 0.0 0.0 0.00 0.00 0.00 51 1000.2
20260504150826 68 288 0.0 0.0 0.00 0.00 0.00 59 1001.3
20260504150322 68 308 0.0 0.0 0.00 0.00 0.00 51 1000.9
20260504141252 61 299 0.0 0.0 0.00 0.00 0.00 77 1001.3
20260504140749 60 299 0.0 0.0 0.00 0.00 0.00 78 1001.3
20260504140244 60 299 0.0 0.0 0.00 0.00 0.00 75 1001.3
20260504130713 51 300 0.0 0.0 0.00 0.00 0.00 93 1000.9
20260504130209 50 300 0.0 0.0 0.00 0.00 0.00 92 1000.9
20260504120133 41 306 0.0 0.0 0.00 0.00 0.00 99 1000.9
20260504110600 38 306 0.0 0.0 0.00 0.00 0.00 99 1000.6
20260504100522 39 306 0.0 0.0 0.00 0.00 0.00 99 1000.6
20260504081916 40 301 0.0 0.0 0.00 0.00 0.00 99 1000.2
20260504081412 40 301 0.0 0.0 0.00 0.00 0.00 99 1000.6
20260504080908 40 301 0.0 0.0 0.00 0.00 0.00 99 1000.6
20260504080405 40 301 0.0 0.0 0.00 0.00 0.00 99 1000.6
20260504070333 41 301 0.0 0.0 0.00 0.00 0.00 99 1000.9
20260504050715 44 301 0.0 0.0 0.00 0.00 0.00 98 1001.6
20260504050212 44 301 0.0 0.0 0.00 0.00 0.00 98 1001.3
20260504045710 44 301 0.0 0.0 0.00 0.00 0.00 98 1001.6
20260504045210 44 301 0.0 0.0 0.00 0.00 0.00 98 1001.3
20260504044708 45 301 0.0 0.0 0.00 0.00 0.00 98 1001.3
20260504044205 45 301 0.0 0.0 0.00 0.00 0.00 98 1001.3
20260504043702 45 301 0.0 0.0 0.00 0.00 0.00 97 1001.6
20260504043158 45 301 0.0 0.0 0.00 0.00 0.00 97 1001.6
20260504042656 45 301 0.0 0.0 0.00 0.00 0.00 97 1001.3
20260504042152 45 301 0.0 0.0 0.00 0.00 0.00 97 1001.6
20260504041648 46 301 0.0 0.0 0.00 0.00 0.00 97 1001.3
20260504041144 46 301 0.0 0.0 0.00 0.00 0.00 97 1001.3
20260504040642 46 301 0.0 0.0 0.00 0.00 0.00 97 1001.3
20260504040138 46 301 0.0 0.0 0.00 0.00 0.00 97 1001.6
20260504035635 46 301 0.0 0.0 0.00 0.00 0.00 97 1001.6
20260504035132 46 301 0.0 0.0 0.00 0.00 0.00 97 1001.3
20260504034630 46 301 0.0 0.0 0.00 0.00 0.00 97 1001.3
20260504034126 46 301 0.0 0.0 0.00 0.00 0.00 96 1001.6
20260504033624 46 301 0.0 0.0 0.00 0.00 0.00 96 1001.3
20260504033121 47 301 0.0 0.0 0.00 0.00 0.00 96 1001.3
20260504032618 47 301 0.0 0.0 0.00 0.00 0.00 96 1001.6
20260504032115 47 301 0.0 0.0 0.00 0.00 0.00 96 1001.3
20260504031612 47 301 0.0 0.0 0.00 0.00 0.00 95 1001.3
20260504031108 47 301 0.0 0.0 0.00 0.00 0.00 95 1001.3
20260504030605 47 301 0.0 0.0 0.00 0.00 0.00 95 1001.3
20260504025559 48 301 0.0 0.0 0.00 0.00 0.00 95 1001.3
20260504025056 48 301 0.0 0.0 0.00 0.00 0.00 94 1000.9
20260504024553 48 301 0.0 0.0 0.00 0.00 0.00 94 1001.3
20260504024049 49 300 0.0 0.0 0.00 0.00 0.00 93 1000.9
20260504023546 49 300 0.0 0.0 0.00 0.00 0.00 93 1000.9
20260504023042 49 300 0.0 0.0 0.00 0.00 0.00 92 1000.9
20260504022538 49 300 0.0 0.0 0.00 0.00 0.00 92 1000.6
20260504022035 49 300 0.0 0.0 0.00 0.00 0.00 93 1000.9
20260504021532 50 300 0.0 0.0 0.00 0.00 0.00 92 1000.9
20260504021029 50 300 0.0 0.0 0.00 0.00 0.00 91 1000.6
20260504020526 50 300 0.0 0.0 0.00 0.00 0.00 90 1000.6
20260504020022 51 300 0.0 0.0 0.00 0.00 0.00 89 1000.6
20260504015519 51 300 0.0 0.0 0.00 0.00 0.00 89 1000.2
20260504015015 51 300 0.0 0.0 0.00 0.00 0.00 89 1000.2
20260504014511 51 300 0.0 0.0 0.00 0.00 0.00 87 1000.6
20260504014008 52 300 0.0 0.0 0.00 0.00 0.00 86 1000.6
20260504013506 52 300 0.0 0.0 0.00 0.00 0.00 86 1000.2
20260504013002 53 300 0.0 0.0 0.00 0.00 0.00 84 1000.2
20260504012500 53 300 0.0 0.0 0.00 0.00 0.00 83 1000.2